[[[{"header":{"parameterUnit":"kt","parameterCategory":2,"dx":1,"dy":1,"la1":30.253999710083008,"la2":30.299108505249023,"lo1":-89.0895004272461,"lo2":-89.04439544677734,"nx":28,"ny":28,"refTime":"2022-10-02T21:00:00:Z","depth":0,"parameterNumber":1,"parameterNumberName":"U-component_of_WINDS"},"data":[-6.888,-6.9032,-6.8967,-6.9111,-6.9077,-6.9165,-6.9176,-6.9184,-6.9173,-6.9272,-6.9318,-6.9269,-6.9235,-6.9275,-6.9323,-6.93,-6.9327,-6.9429,-6.9386,-6.8986,-6.8926,-6.887,-6.8829,-6.9435,-6.9435,-6.981,-6.9814,-6.9816,-6.8597,-6.8565,-6.8621,-6.8631,-6.868,-6.8542,-6.854,-6.859,-6.8673,-6.8661,-6.8701,-6.8784,-6.8841,-6.8769,-6.8814,-6.8886,-6.8826,-6.8904,-6.8899,-6.8896,-6.8466,-6.8423,-6.8952,-6.8952,-6.8952,-6.8952,-6.8952,-6.8952,-6.8065,-6.8158,-6.8124,-6.8184,-6.8171,-6.8179,-6.8257,-6.8192,-6.8247,-6.8283,-6.8194,-6.8287,-6.8263,-6.8283,-6.8274,-6.8346,-6.8248,-6.8314,-6.8331,-6.8351,-6.8383,-6.7857,-6.835,-6.8348,-6.8347,-6.8345,-6.8344,0,-6.7655,-6.7593,-6.7641,-6.7671,-6.771,-6.7727,-6.7731,-6.7777,-6.7623,-6.7676,-6.7746,-6.7775,-6.7834,-6.7895,-6.7921,-6.7896,-6.7762,-6.7739,-6.7785,-6.7832,-6.7872,-6.7857,-6.7161,-6.7726,-6.772,-6.7716,-6.7713,-6.7711,-6.7116,-6.723,-6.7162,-6.7205,-6.7189,-6.7261,-6.729,-6.7144,-6.7183,-6.7167,-6.7257,-6.7313,-6.7351,-6.7477,-6.7401,-6.7446,-6.7382,-6.7605,-6.7388,-6.7428,-6.739,-6.7386,-6.7398,-6.7652,-6.766,-6.7666,-6.7671,0,-6.682,-6.6708,-6.6864,-6.6783,-6.6766,-6.6895,-6.6827,-6.6914,-6.684,-6.695,-6.6968,-6.6854,-6.6926,-6.6812,-6.6871,-6.681,-6.7027,-6.6961,-6.7035,-6.7017,-6.7209,-6.7194,-6.7842,-6.792,-6.7287,-6.7293,-6.7298,0,-6.6317,-6.6474,-6.6298,-6.6394,-6.6563,-6.641,-6.6583,-6.6535,-6.6508,-6.6593,-6.6418,-6.6502,-6.6342,-6.6411,-6.6321,-6.6477,-6.6486,-6.6451,-6.6426,-6.6469,-6.6474,-6.6491,-6.6463,-6.6359,-6.6356,-6.6353,-6.635,0,-6.5868,-6.5954,-6.6109,-6.6111,-6.604,-6.6117,-6.6092,-6.6058,-6.6089,-6.6109,-6.6127,-6.6163,-6.6184,-6.6215,-6.6099,-6.5957,-6.6286,-6.6065,-6.6249,-6.6253,-6.6331,-6.6329,-6.6927,-6.6346,-6.6345,-6.6344,-6.6343,0,-6.5445,-6.5465,-6.5705,-6.5642,-6.5671,-6.5773,-6.5795,-6.5855,-6.5834,-6.5782,-6.5797,-6.5667,-6.5789,-6.558,-6.5749,-6.5596,-6.5628,-6.5602,-6.5613,-6.5621,-6.539,-6.5748,-6.6326,-6.6384,-6.5625,-6.5618,-6.5613,0,-6.4964,-6.5174,-6.5042,-6.5274,-6.5355,-6.5151,-6.5261,-6.5246,-6.5185,-6.5247,-6.5179,-6.5252,-6.507,-6.5077,-6.5175,-6.511,-6.5309,-6.5079,-6.5178,-6.5183,-6.5194,-6.5722,-6.5839,-6.6211,-6.5535,-6.5543,-6.5549,0,-6.4576,-6.4483,-6.4534,-6.453,-6.4481,-6.4548,-6.4675,-6.471,-6.4759,-6.4759,-6.4864,-6.496,-6.4828,-6.4841,-6.4738,-6.4847,-6.517,-6.469,-6.4688,-6.4785,-6.5484,-6.5594,-6.5657,-6.5078,-6.5087,-6.5094,-6.5486,0,-6.397,-6.4058,-6.4187,-6.4181,-6.4213,-6.435,-6.4223,-6.4273,-6.4169,-6.4101,-6.4251,-6.4208,-6.4247,-6.4284,-6.4185,-6.4468,-6.4404,-6.4262,-6.4052,-6.4398,-6.4525,-6.4576,-6.3874,-6.3867,-6.3861,-6.3856,0,0,-6.3539,-6.3661,-6.3511,-6.3626,-6.3644,-6.3428,-6.3586,-6.3578,-6.357,-6.3588,-6.3468,-6.36,-6.3571,-6.3767,-6.3865,-6.3879,-6.392,-6.3803,-6.4233,-6.4276,-6.4315,-6.4453,-6.4508,-6.3846,-6.3843,-6.3841,-6.384,0,-6.329,-6.3259,-6.3414,-6.3398,-6.3369,-6.3287,-6.3325,-6.3259,-6.3222,-6.3365,-6.3188,-6.3263,-6.3371,-6.3364,-6.3375,-6.3775,-6.3639,-6.3796,-6.4054,-6.4179,-6.4229,-6.4273,-6.4419,-6.4473,-6.3825,-6.3826,-6.3827,0,-6.2888,-6.2837,-6.2897,-6.2923,-6.2902,-6.299,-6.2737,-6.284,-6.2904,-6.2664,-6.281,-6.277,-6.2749,-6.2949,-6.3034,-6.2929,-6.3391,-6.3221,-6.3254,-6.3262,-6.3377,-6.3438,-6.3492,-6.278,-6.2777,-6.2774,0,0,-6.2692,-6.2771,-6.267,-6.286,-6.2859,-6.2739,-6.2772,-6.2671,-6.2653,-6.2648,-6.2592,-6.2584,-6.2645,-6.2689,-6.2739,-6.2976,-6.2962,-6.3097,-6.3147,-6.3187,-6.3218,-6.3343,-6.3403,-6.2763,-6.2762,-6.2762,0,0,-6.2598,-6.2487,-6.2383,-6.2587,-6.2577,-6.2491,-6.2614,-6.2486,-6.2517,-6.2487,-6.2323,-6.2314,-6.2498,-6.2466,-6.2322,-6.2663,-6.2457,-6.2488,-6.2678,-6.2738,-6.2786,-6.2792,-6.2059,0,0,0,0,0,-6.2277,-6.2499,-6.2407,-6.2422,-6.2454,-6.2542,-6.2545,-6.2413,-6.227,-6.2371,-6.2304,-6.2153,-6.2355,-6.2224,-6.2242,-6.2405,-6.261,-6.2637,-6.2663,-6.2962,-6.3026,-6.3081,0,0,0,0,0,0,-6.2282,-6.23,-6.24,-6.2327,-6.2332,-6.2533,-6.2261,-6.2231,-6.2256,-6.2225,-6.2171,-6.2151,-6.2042,-6.2205,-6.2224,-6.2381,-6.2052,-6.2621,-6.2644,-6.2664,-6.2984,-6.3037,-6.3082,0,0,0,0,0,-6.2285,-6.2299,-6.2386,-6.2322,-6.2328,-6.2205,-6.2252,-6.2224,-6.2241,-6.2138,-6.2113,-6.2139,-6.205,-6.2057,-6.2215,-6.2376,-6.2038,-6.2046,-6.2636,-6.2654,-6.267,-6.301,0,0,0,0,0,0,-6.2287,-6.2276,-6.2383,-6.238,-6.2227,-6.2191,-6.218,-6.222,-6.2149,-6.2128,-6.2097,-6.2074,-6.2059,-6.2062,-6.2069,-6.2382,-6.2026,-6.2034,-6.2039,-6.265,-6.2664,-6.2676,0,0,0,0,0,0,-6.2267,-6.2275,-6.2382,-6.2269,-6.2252,-6.2179,-6.217,-6.2284,-6.2152,-6.2112,-6.209,-6.2088,-6.205,-6.2068,-6.2072,-6.2256,-6.2018,-6.2025,-6.203,-6.2033,-6.2661,-6.2672,0,0,0,0,0,0,-6.2268,-6.2275,-6.2269,-6.2256,-6.224,-6.2193,-6.2278,-6.232,-6.2053,-6.2119,-6.2025,-6.2013,-6.206,-6.2061,-6.2075,-6.2259,-6.2257,-6.2018,-6.2023,-6.2026,-6.2029,0,0,0,0,0,0,0,-6.2269,-6.2255,-6.2403,-6.2245,-6.223,-6.235,-6.2349,-6.2348,-6.205,-6.2039,-6.2028,-6.2018,-6.1975,-6.1983,-6.1992,-6.2261,0,0,-6.2017,-6.2021,0,0,0,0,0,0,0,0,-6.225,-6.2254,-6.2403,-6.2402,-6.2401,-6.235,-6.2349,-6.2349,-6.2048,-6.2039,-6.203,-6.2022,-6.1978,-6.1984,-6.1991,0,0,0,0,0,0,0,0,0,0,0,0,0,0,0,-6.2403,-6.2402,0,-6.235,-6.2349,-6.2349,-6.2047,-6.204,-6.2032,-6.2025,-6.1979,-6.1985,-6.199,0,0,0,0,0,0,0,0,0,0,0,0,0,0,0,0,0,0,0,0,0,0,0,0,0,0,0,0,0,0,0,0,0,0,0,0,0,0,0,0,0,0,0,0,0,0,0,0,0,0,0,0,0,0,0,0,0,0,0,0,0,0,0,0,0,0,0,0,0]}],[{"header":{"parameterUnit":"kt","parameterCategory":2,"dx":1,"dy":1,"la1":30.253999710083008,"la2":30.299108505249023,"lo1":-89.0895004272461,"lo2":-89.04439544677734,"nx":28,"ny":28,"refTime":"2022-10-02T21:00:00:Z","depth":0,"parameterNumber":2,"parameterNumberName":"V-component_of_WINDS"},"data":[-1.9746,-1.9846,-1.9873,-1.9999,-2.0044,-2.0135,-2.0177,-2.0233,-2.0284,-2.0396,-2.0465,-2.0503,-2.0566,-2.0656,-2.0733,-2.0748,-2.0781,-2.0795,-2.0812,-2.072,-2.071,-2.07,-2.0679,-2.08,-2.08,-2.0904,-2.0905,-2.0906,-1.9673,-1.9719,-1.9793,-1.9884,-1.9948,-1.9949,-2.0022,-2.0076,-2.0158,-2.0222,-2.0292,-2.0394,-2.0477,-2.0538,-2.0623,-2.0671,-2.0679,-2.0693,-2.0692,-2.0703,-2.0605,-2.0583,-2.0685,-2.0685,-2.0685,-2.0685,-2.0685,-2.0685,-1.9548,-1.9607,-1.9678,-1.976,-1.9813,-1.9874,-1.9935,-1.998,-2.0054,-2.0147,-2.0165,-2.0259,-2.033,-2.0448,-2.0495,-2.0569,-2.0559,-2.0585,-2.0592,-2.0599,-2.0603,-2.0453,-2.0584,-2.0584,-2.0584,-2.0584,-2.0584,0,-1.9467,-1.9486,-1.956,-1.9642,-1.9703,-1.977,-1.9836,-1.9874,-1.9925,-1.9985,-2.0073,-2.0129,-2.0239,-2.0326,-2.0413,-2.0458,-2.0471,-2.0474,-2.0492,-2.0488,-2.047,-2.0484,-2.0326,-2.0472,-2.0471,-2.047,-2.047,-2.0469,-1.9347,-1.9411,-1.95,-1.9548,-1.9592,-1.9669,-1.9721,-1.9762,-1.9816,-1.9904,-1.9954,-2.0041,-2.0114,-2.0251,-2.0307,-2.0391,-2.0399,-2.0451,-2.0412,-2.0402,-2.0404,-2.0402,-2.041,-2.046,-2.0461,-2.0462,-2.0463,0,-1.9277,-1.9323,-1.9433,-1.9515,-1.9538,-1.9604,-1.9675,-1.9736,-1.9774,-1.9864,-1.9887,-1.9949,-2.0036,-2.0084,-2.0193,-2.0216,-2.0327,-2.033,-2.0303,-2.0307,-2.0362,-2.0358,-2.0525,-2.055,-2.0421,-2.0422,-2.0423,0,-1.9194,-1.9278,-1.9343,-1.9405,-1.9499,-1.9539,-1.9631,-1.9675,-1.9738,-1.9808,-1.9828,-1.9894,-1.9945,-2.0019,-2.0052,-2.0151,-2.0171,-2.0196,-2.0205,-2.0197,-2.0195,-2.0231,-2.0227,-2.0218,-2.0217,-2.0216,-2.0216,0,-1.9084,-1.9217,-1.9316,-1.9354,-1.9453,-1.9499,-1.9542,-1.9613,-1.9665,-1.9739,-1.9773,-1.9856,-1.9904,-1.9968,-2.0011,-1.9983,-2.0132,-2.0103,-2.0158,-2.0158,-2.0194,-2.0192,-2.0323,-2.0215,-2.0214,-2.0214,-2.0214,0,-1.9028,-1.9101,-1.9238,-1.9321,-1.9355,-1.942,-1.9506,-1.9573,-1.9647,-1.9673,-1.9732,-1.9753,-1.9842,-1.9809,-1.9933,-1.9884,-1.9929,-1.996,-1.9965,-1.9981,-1.9945,-2.0018,-2.0133,-2.015,-1.9988,-1.9986,-1.9985,0,-1.889,-1.9041,-1.9078,-1.9207,-1.9284,-1.9304,-1.9377,-1.9442,-1.9483,-1.9555,-1.96,-1.9682,-1.9667,-1.9701,-1.9755,-1.9806,-1.9869,-1.9798,-1.9905,-1.9909,-1.9889,-1.9995,-2.0003,-2.0101,-1.9961,-1.9963,-1.9965,0,-1.879,-1.891,-1.8931,-1.8978,-1.9071,-1.9136,-1.922,-1.931,-1.9356,-1.9428,-1.9501,-1.9616,-1.9611,-1.9666,-1.9693,-1.9747,-1.9827,-1.9735,-1.9738,-1.9753,-1.9952,-1.9959,-1.9976,-1.9834,-1.9837,-1.9839,-1.9947,0,-1.87,-1.8782,-1.8839,-1.8941,-1.8998,-1.9082,-1.9135,-1.9188,-1.9209,-1.9251,-1.9359,-1.9428,-1.9522,-1.9552,-1.9574,-1.9681,-1.9673,-1.9667,-1.9644,-1.9711,-1.9748,-1.9763,-1.9583,-1.9583,-1.9582,-1.9582,0,0,-1.8559,-1.8678,-1.8719,-1.8803,-1.8854,-1.8876,-1.8961,-1.9014,-1.9121,-1.9157,-1.9142,-1.9316,-1.9374,-1.95,-1.9525,-1.9562,-1.9588,-1.9563,-1.9677,-1.9688,-1.9698,-1.9736,-1.9751,-1.9582,-1.9581,-1.9581,-1.9581,0,-1.8539,-1.8594,-1.8678,-1.8734,-1.8819,-1.8861,-1.888,-1.8969,-1.9001,-1.9107,-1.9126,-1.9197,-1.9336,-1.9395,-1.9443,-1.9547,-1.956,-1.9571,-1.961,-1.9672,-1.9683,-1.9692,-1.9732,-1.9746,-1.958,-1.9581,-1.9581,0,-1.8453,-1.8518,-1.8564,-1.8682,-1.8739,-1.8818,-1.8805,-1.8889,-1.8949,-1.8972,-1.9078,-1.9124,-1.9208,-1.9319,-1.9371,-1.9361,-1.9532,-1.9487,-1.9491,-1.95,-1.9563,-1.9576,-1.9587,-1.9437,-1.9437,-1.9436,0,0,-1.8429,-1.8506,-1.8591,-1.8682,-1.8716,-1.878,-1.8828,-1.8855,-1.8929,-1.8959,-1.902,-1.9093,-1.9174,-1.9227,-1.9306,-1.942,-1.9443,-1.9467,-1.9474,-1.9479,-1.9491,-1.9555,-1.9568,-1.9433,-1.9433,-1.9433,0,0,-1.8418,-1.8521,-1.8529,-1.8642,-1.8711,-1.8803,-1.8857,-1.887,-1.8947,-1.8944,-1.8995,-1.9017,-1.9121,-1.9167,-1.9124,-1.93,-1.9275,-1.9286,-1.9267,-1.9277,-1.9283,-1.9272,-1.9124,0,0,0,0,0,-1.8427,-1.8507,-1.8514,-1.8541,-1.8692,-1.8798,-1.8818,-1.8862,-1.8843,-1.8884,-1.8937,-1.8948,-1.9154,-1.9117,-1.9144,-1.9194,-1.9398,-1.9404,-1.941,-1.9412,-1.9421,-1.9429,0,0,0,0,0,0,-1.8438,-1.8471,-1.8512,-1.8606,-1.864,-1.8796,-1.8774,-1.8788,-1.8839,-1.884,-1.8937,-1.8951,-1.8991,-1.9106,-1.913,-1.9176,-1.9116,-1.94,-1.9406,-1.941,-1.9415,-1.9423,-1.9429,0,0,0,0,0,-1.8447,-1.8474,-1.8705,-1.8605,-1.8635,-1.8712,-1.8771,-1.8783,-1.8824,-1.8907,-1.8921,-1.8852,-1.8991,-1.9014,-1.912,-1.9164,-1.91,-1.9109,-1.9404,-1.9408,-1.9412,-1.9419,0,0,0,0,0,0,-1.8454,-1.8486,-1.8712,-1.8723,-1.8579,-1.8704,-1.8725,-1.8778,-1.8889,-1.8903,-1.8824,-1.8823,-1.8992,-1.9009,-1.9027,-1.9158,-1.9087,-1.9096,-1.9101,-1.9407,-1.941,-1.9413,0,0,0,0,0,0,-1.8472,-1.8495,-1.8718,-1.8682,-1.8689,-1.8697,-1.8716,-1.8813,-1.889,-1.88,-1.8802,-1.8822,-1.8966,-1.9007,-1.902,-1.9171,-1.9077,-1.9085,-1.9091,-1.9095,-1.941,-1.9412,0,0,0,0,0,0,-1.8482,-1.8502,-1.868,-1.8685,-1.8691,-1.8816,-1.8784,-1.8937,-1.8857,-1.8795,-1.8851,-1.8849,-1.8963,-1.8978,-1.9016,-1.916,-1.9168,-1.9077,-1.9083,-1.9087,-1.909,0,0,0,0,0,0,0,-1.8491,-1.8348,-1.8648,-1.8688,-1.8693,-1.8823,-1.8826,-1.8829,-1.8857,-1.8854,-1.8852,-1.885,-1.9029,-1.9038,-1.9048,-1.9152,0,0,-1.9077,-1.9081,0,0,0,0,0,0,0,0,-1.834,-1.8346,-1.8649,-1.8651,-1.8653,-1.8823,-1.8826,-1.8828,-1.8856,-1.8854,-1.8853,-1.8851,-1.9032,-1.9039,-1.9047,0,0,0,0,0,0,0,0,0,0,0,0,0,0,0,-1.8649,-1.8651,0,-1.8824,-1.8826,-1.8828,-1.8856,-1.8854,-1.8853,-1.8851,-1.9034,-1.904,-1.9046,0,0,0,0,0,0,0,0,0,0,0,0,0,0,0,0,0,0,0,0,0,0,0,0,0,0,0,0,0,0,0,0,0,0,0,0,0,0,0,0,0,0,0,0,0,0,0,0,0,0,0,0,0,0,0,0,0,0,0,0,0,0,0,0,0,0,0,0,0]}]]]